星链-37928(STARLINK-37928)

导读

STARLINK-37928(NORAD编号69955)是美国SpaceX公司星链低轨通信星座的组成卫星,目前公开数据库暂未查询到其具体发射时间、轨道参数等专属信息。 星链星座旨在为全球提供低延迟高速宽带网络,截至2026年7月在轨活跃卫星已超1.24万颗,服务用户超1200万,覆盖偏远地区、航空航海等场景。该编号属于北美防空司令部分配的唯一空间目标识别码,可用于卫星轨道跟踪、碰撞预警等航天管理工作,相关详细运行数据可后续通过CelesTrak等专业航天数据库查询。

基本信息
目录编号:
69955
目录名称:
STARLINK-37928
国际标识:
2026-157N
轨道中心:
EARTH
卫星名称:
星链-37928
卫星全名:
星链-37928(STARLINK-37928)
卫星状态:
在轨 (已飞行58 天)
发射日期:
2026-07-09 UTC
国别 :
美国 (US)
星等 :
--
轨道信息
数据来源 国际轨道数据
星历时间: 2026-09-04T19:09:03+0800
19小时前
查看轨道信息
半长轴: 6840.843km
偏心率: 0.000197
轨道倾角: 53.161°
近地点辐角 46.264°
升交点赤经 48.490°
平近点角 313.853°
近地点: 461.358km
远地点: 464.054km
周期: 93.848分钟
每日圈数: 15.343992
详细信息
固有亮度:
5
最大亮度:
2.5
卫星平台:
Starlink V1.0
覆盖范围:
全球
运营商:
太空探索技术公司
运营商所在国:
美国
制造商(研发单位):
太空探索技术公司
制造商所在国:
美国
使用方式:
暂无
卫星简介
Starlink 计划是 SpaceX 推出的全球卫星互联网项目,通过发射低轨道卫星,为全球尤其是偏远地区提供高速、低延迟的互联网服务。自 2019 年起,Starlink 已部署数千颗卫星,旨在缩小全球数字鸿沟,推动互联网普及。该项目还为军事、航空等行业提供通信支持,带来广泛经济效益。
2D轨道图
3D轨道图
轨道高度分析图
轨道倾角分析图
轨道综合分析图
查看轨道综合分析图